SCP
0 1 2 2 2 2 2 2 2 2 2 1 1 1 1 0 0 0 0 0 0 0 0 0 0 0 0 0 0 0 0 0 0 0 0 0 0 0 0 0 0 0 0
1 1 2 2 2 2 2 2 2 2 2 1 1 1 1 0 0 0 0 0 0 0 0 0 0 0 0 0 0 0 0 0 0 0 0 0 0 0 0 0 0 0 0
1 1 2 2 2 2 2 2 2 2 2 1 1 1 1 0 0 0 0 0 0 0 0 0 0 0 0 0 0 0 0 0 0 0 0 0 0 0 0 0 0 0 0
1 1 2 2 2 2 2 2 2 2 1 1 1 1 1 1 0 0 0 0 0 0 0 0 0 0 0 0 0 0 0 0 0 0 0 0 0 0 0 0 0 0 0
1 1 1 2 2 2 2 2 2 1 1 1 1 1 1 1 0 0 0 0 0 0 0 0 0 0 0 0 0 0 0 0 0 0 0 0 0 0 0 0 0 0 0
1 1 1 2 2 2 2 2 2 1 1 1 1 1 1 1 1 0 0 0 0 0 0 0 0 0 0 0 0 0 0 0 0 0 0 0 0 0 0 0 0 0 0
1 1 1 2 2 2 2 2 2 1 1 1 1 1 1 1 1 1 0 0 0 0 0 0 0 0 0 0 0 0 0 0 0 0 0 0 0 0 0 0 0 0 0
1 1 1 1 2 2 2 2 2 1 1 1 1 1 1 1 1 1 0 0 0 0 0 0 0 0 0 0 0 0 0 0 0 0 0 0 0 0 0 0 0 0 0
1 1 1 1 1 1 1 1 1 1 1 1 1 1 1 1 1 1 0 0 0 0 0 0 0 0 0 0 0 0 0 0 0 0 0 0 0 0 0 0 0 0 0
1 1 1 1 1 1 1 1 1 1 1 1 1 1 1 1 1 0 0 0 0 0 0 0 0 0 0 0 0 0 0 0 0 0 0 0 0 0 0 0 0 0 0
1 1 1 1 1 1 1 1 1 1 1 1 1 1 1 0 0 0 0 0 0 0 0 0 0 0 0 0 0 0 0 0 0 0 0 0 0 0 0 0 0 0 0
0 0 1 1 1 1 1 1 1 1 1 1 1 1 0 0 0 0 0 0 0 0 0 0 0 0 0 0 0 0 0 0 0 0 0 0 0 -0 -0 0 0 0 0
0 0 0 0 1 1 1 1 1 1 1 1 1 1 0 0 0 0 0 0 0 0 0 0 0 0 0 0 0 0 0 0 0 0 0 0 0 -0 -0 0 0 0 0
0 0 0 0 0 0 1 1 1 1 1 0 0 0 0 0 0 0 0 0 0 0 0 0 0 0 0 0 0 0 0 0 0 -0 0 0 0 0 0 0 0 0 0
0 0 0 0 0 0 0 0 1 0 0 0 0 0 0 0 0 0 0 0 0 0 0 0 0 0 0 0 0 0 0 0 0 0 0 0 0 0 0 0 0 0 0
0 0 0 0 0 0 0 0 0 0 0 0 0 0 0 0 0 0 0 0 0 0 0 0 0 0 0 0 0 0 0 0 0 0 0 0 0 0 0 0 0 0 0
0 0 0 0 0 0 0 0 0 0 0 0 0 0 0 0 0 0 0 0 0 0 0 0 0 0 0 0 0 0 0 0 0 0 0 0 0 0 0 0 0 0 0
0 0 0 0 0 0 0 0 0 0 0 0 0 0 0 0 0 0 0 0 0 0 0 0 0 0 0 0 0 0 0 0 0 0 0 0 0 0 0 0 0 0 0
0 0 0 0 0 0 0 0 0 0 0 0 0 0 0 0 0 0 0 0 0 0 0 0 0 0 0 0 0 0 0 0 0 0 0 0 0 0 0 0 0 0 0
0 0 0 0 0 0 0 0 0 0 0 0 0 0 0 0 0 0 0 0 0 0 0 0 0 0 0 0 0 0 0 0 0 0 0 0 0 0 0 0 0 0 0
0 0 0 0 0 0 0 0 0 0 0 0 0 0 0 0 0 0 0 0 0 0 0 0 0 0 0 0 0 0 0 0 0 0 0 0 0 0 0 0 0 0 0
0 0 0 0 0 0 0 0 0 0 0 0 0 0 0 0 0 0 0 0 0 0 0 0 0 0 0 0 0 0 0 0 0 0 0 0 0 0 0 0 0 0 0
0 0 0 0 0 0 0 0 0 0 0 0 0 0 0 0 0 0 0 0 0 0 0 0 0 0 0 0 0 0 0 0 0 0 0 0 0 0 0 0 0 0 0
0 0 0 0 0 0 0 0 0 0 0 0 0 0 0 0 0 0 0 0 0 0 0 0 0 0 0 0 0 0 0 0 0 0 0 0 0 0 0 0 0 0 0
0 0 0 0 0 0 0 0 0 0 0 0 0 0 0 0 0 0 0 0 0 0 0 0 0 0 0 0 0 0 0 0 0 0 0 0 0 0 0 0 0 0 0
0 0 0 0 0 0 0 0 0 0 0 0 0 0 0 0 0 0 0 0 0 0 0 0 0 0 0 0 0 0 0 0 0 0 0 0 0 0 0 0 0 0 0
Wind_Speed
3 6 14 17 18 18 18 17 17 17 18 19 19 20 20 19 19 18 17 17 16 17 17 17 17 17 17 17 16 16 16 16 16 16 15 14 15 16 16 16 14 10 17
4 8 13 16 17 17 18 17 16 16 17 18 19 19 19 19 19 18 18 17 17 17 17 17 17 17 17 17 17 16 16 16 16 15 13 11 13 15 16 15 14 10 16
3 7 11 15 16 17 17 17 16 16 17 18 18 19 19 19 19 18 18 17 17 17 17 17 17 17 17 17 16 16 16 15 15 14 11 6 8 15 15 15 15 15 15
3 5 8 12 16 17 17 17 17 17 17 17 18 18 19 19 18 18 18 17 17 17 17 17 17 17 16 16 15 15 15 14 14 11 6 4 5 13 14 14 14 15 15
2 3 6 11 14 16 16 16 17 17 17 17 17 17 18 18 18 18 17 17 17 16 16 16 16 16 15 15 14 14 14 13 12 8 5 4 4 12 14 14 14 14 14
1 2 5 9 13 15 16 16 17 17 17 17 17 17 18 18 18 17 16 16 16 16 16 16 16 15 14 14 14 14 14 13 9 5 4 4 4 11 13 13 12 13 13
1 2 4 8 11 14 16 17 16 16 16 17 17 17 18 18 17 17 16 17 17 17 16 16 15 15 14 13 14 14 13 12 6 5 4 3 5 11 12 12 12 12 12
1 1 3 8 9 12 14 16 16 16 15 16 17 17 17 17 17 17 17 17 17 17 16 16 15 14 14 14 14 13 12 9 7 5 3 2 7 10 11 11 11 11 11
1 1 2 4 6 9 12 13 14 15 15 15 15 15 14 14 15 17 17 17 16 16 15 15 14 14 13 13 13 12 10 8 5 3 3 2 6 9 10 10 10 10 9
1 1 1 3 4 5 7 11 12 13 14 14 13 13 12 13 14 15 14 15 15 15 14 14 14 13 13 12 12 11 9 7 4 3 2 3 7 9 9 9 8 8 8
2 2 2 2 3 4 6 8 10 11 12 12 11 12 11 8 9 10 11 13 14 14 13 13 13 12 10 10 10 10 7 3 3 2 1 4 7 8 8 7 7 7 7
4 4 3 2 4 5 5 5 5 6 7 7 7 9 7 6 6 8 11 12 13 12 12 12 12 11 7 4 6 7 3 4 2 2 2 5 6 7 7 7 6 7 6
5 4 4 3 3 5 4 4 3 4 4 5 7 8 7 6 5 5 5 6 7 8 6 7 7 4 4 4 3 3 3 3 2 1 2 5 6 7 7 6 6 6 5
4 4 4 4 3 5 4 4 4 4 4 5 6 8 7 6 6 5 4 5 5 4 5 4 4 4 4 4 4 4 4 3 2 2 2 5 5 7 7 6 6 5 4
5 4 4 3 4 5 5 4 5 5 6 6 6 7 8 7 7 6 5 5 5 4 5 5 5 5 4 4 4 4 4 4 3 2 2 4 5 6 6 6 6 5 5
5 4 4 3 4 4 4 4 4 5 5 6 6 7 9 7 7 7 7 6 6 5 5 5 6 5 4 4 4 4 4 4 3 3 2 3 5 5 6 6 6 5 4
4 4 5 4 4 5 5 5 4 4 5 6 6 7 8 8 8 7 7 7 6 6 6 5 5 4 4 3 4 4 3 3 3 3 3 2 2 4 5 6 5 4 4
3 4 4 4 4 4 5 5 4 4 5 5 6 7 9 9 9 7 7 6 6 6 6 5 5 4 4 4 3 3 3 3 4 4 3 3 2 2 3 5 5 5 4
4 4 3 3 4 4 5 5 4 4 4 5 5 6 8 9 9 8 7 6 7 6 6 6 5 4 4 4 3 2 2 3 3 3 4 4 3 3 2 3 4 4 4
2 2 3 3 4 5 4 4 3 4 4 4 5 6 8 8 9 8 6 7 7 6 6 6 6 4 4 4 3 1 1 2 2 3 4 3 3 4 3 3 2 2 4
1 2 3 3 4 4 3 4 4 5 4 4 5 7 8 8 9 8 6 7 7 7 7 7 5 5 4 4 3 1 0 1 2 2 3 3 3 3 3 3 3 2 2
2 2 3 4 4 4 3 3 3 4 4 5 5 6 8 9 10 9 8 8 8 6 7 8 6 4 3 5 4 3 1 1 2 3 2 3 4 3 4 4 3 3 2
2 2 2 3 4 4 3 2 2 2 2 3 4 5 7 9 9 9 10 9 8 8 8 9 9 8 5 5 4 5 4 4 2 2 3 3 3 3 3 3 4 3 3
3 2 2 2 3 3 3 3 5 4 4 4 5 5 6 8 9 9 9 10 9 8 8 9 9 7 8 6 4 3 2 3 4 2 2 2 3 3 4 3 4 3 3
3 3 2 2 3 3 3 4 5 4 3 3 4 5 6 6 7 8 8 9 9 8 9 9 8 8 7 7 5 3 2 1 2 3 3 3 2 3 4 4 3 3 3
5 4 3 2 2 2 2 3 4 5 4 4 5 5 5 4 5 7 7 8 8 8 9 9 9 9 8 7 6 5 4 4 4 3 3 3 3 3 3 3 3 4 3
Wind_Direction
198 175 175 167 162 158 154 151 147 143 141 141 141 141 141 140 139 137 134 132 130 126 124 122 120 117 114 109 104 100 97 94 90 88 85 86 87 86 83 79 76 71 77
184 173 173 168 164 161 157 153 149 146 144 144 144 143 143 142 141 140 138 136 133 129 126 124 122 118 114 110 105 101 98 96 94 90 83 82 88 89 87 85 83 82 80
160 166 169 167 165 162 159 155 152 150 148 147 147 146 146 145 144 142 141 140 136 131 129 126 123 119 115 112 109 106 104 102 99 93 85 76 89 92 90 87 84 83 81
152 162 166 166 166 164 161 159 157 155 153 151 150 150 149 148 147 145 144 142 137 133 130 128 125 121 119 116 113 110 109 106 100 93 76 70 86 95 92 89 87 84 83
129 154 163 165 166 165 162 162 161 160 158 156 154 153 151 150 149 148 147 142 137 134 132 130 128 125 123 120 118 116 113 109 100 87 74 70 78 96 93 91 88 87 86
124 156 166 167 169 170 167 164 164 164 164 161 158 156 155 154 153 151 146 140 137 136 136 134 132 129 127 124 123 121 117 111 97 83 76 74 82 100 98 96 94 92 89
181 167 178 171 175 174 172 168 166 166 167 166 163 161 160 158 156 151 145 141 141 141 140 137 135 133 131 129 126 125 120 115 104 92 85 84 102 106 104 102 99 96 92
217 181 188 181 177 177 176 174 171 170 169 167 169 167 164 161 156 151 148 146 147 147 145 142 140 136 135 132 129 128 127 121 112 102 95 97 115 110 108 106 103 99 96
245 169 193 189 180 179 175 174 175 172 170 168 168 167 163 161 157 154 152 152 153 152 149 147 144 140 138 136 133 132 128 120 115 115 111 112 122 117 113 111 108 103 99
269 206 193 198 180 178 177 176 176 173 171 170 168 162 158 159 158 156 155 156 156 155 152 149 147 144 140 139 138 134 127 119 117 115 115 137 131 125 122 118 115 111 106
276 252 198 196 184 178 176 174 174 173 169 167 165 158 154 155 155 156 157 158 158 157 155 153 149 144 137 137 137 133 124 123 127 127 145 153 142 136 133 130 126 121 115
261 244 212 197 191 180 180 171 171 171 168 164 161 158 152 150 155 156 158 159 159 157 156 154 148 140 129 128 131 125 123 135 133 147 178 168 154 147 142 140 137 130 124
258 246 221 199 201 181 177 170 172 167 163 162 160 158 151 148 149 151 155 156 155 154 150 149 138 133 135 139 138 136 142 143 149 164 188 182 170 161 154 151 148 143 139
258 256 240 210 203 188 181 176 172 171 166 166 165 161 157 157 157 158 162 160 159 156 152 146 142 143 143 147 149 149 154 157 167 174 204 193 184 175 169 166 164 163 164
252 244 249 226 214 193 181 184 175 179 176 171 169 170 167 164 166 165 166 167 166 161 161 157 153 153 154 155 160 162 167 174 180 184 201 194 187 184 182 181 181 182 188
252 241 232 228 222 192 180 184 177 179 180 176 176 176 173 169 170 171 172 173 174 173 170 167 164 161 162 162 170 174 179 181 189 189 192 193 191 192 195 198 199 199 199
249 241 230 220 224 199 185 188 180 175 178 180 177 177 176 172 172 174 177 180 181 174 169 161 158 153 159 167 179 183 183 189 189 194 190 190 196 204 208 211 212 207 209
251 241 230 223 222 210 190 191 184 182 183 182 179 178 181 179 176 175 180 183 177 171 172 170 168 165 170 173 180 187 186 189 196 199 194 195 195 203 215 218 215 212 211
234 233 234 230 228 223 198 188 184 183 191 189 182 183 185 182 180 179 182 182 175 176 177 179 173 166 169 175 181 184 188 195 198 197 202 204 201 199 203 210 208 211 213
227 224 222 228 234 227 204 182 179 184 192 194 187 189 188 184 181 180 179 179 177 179 180 181 175 169 168 164 157 161 196 207 199 203 207 205 203 201 197 197 199 217 217
240 229 223 235 236 222 203 184 186 195 190 195 196 190 190 187 184 183 180 179 182 186 186 180 174 170 169 148 127 127 344 221 213 216 206 201 206 203 193 193 193 198 215
250 242 239 243 243 231 212 191 185 182 186 194 196 188 192 190 188 189 184 184 186 186 184 184 172 170 173 169 149 143 180 244 238 219 206 207 208 196 198 198 192 196 195
289 257 240 246 249 238 215 188 173 165 159 188 197 194 195 193 191 190 191 188 187 187 192 191 186 179 181 191 179 164 171 204 208 224 218 215 205 203 205 193 198 200 196
311 295 262 257 258 247 216 196 190 190 192 207 198 197 196 196 196 194 194 194 192 192 194 195 194 192 180 187 198 203 187 162 168 195 224 217 213 216 213 203 199 203 199
340 337 316 289 273 247 213 205 197 197 200 201 192 197 198 198 198 198 197 199 197 197 198 195 192 196 194 191 187 179 180 184 176 175 214 208 213 219 217 210 201 204 201
1 356 340 325 301 275 222 214 207 201 197 191 189 199 199 196 197 202 201 202 203 202 201 198 196 198 203 199 194 188 183 184 190 187 203 215 221 219 214 211 203 202 201